Nantucket, MA

11:39 PM EDT on March 26, 2017 (GMT -0400)
Nantucket Memorial

Weather History for KACK - July, 2012

Change the Weather History Date:

Tuesday, July 3, 2012

  Actual Average Record
Temperature  
Mean Temperature 72 °F -  
Max Temperature 81 °F 73 °F 87 °F (1975)
Min Temperature 63 °F 59 °F 50 °F (1971)
Cooling Degree Days 6    
Growing Degree Days 22 (Base 50)    
Moisture  
Dew Point 61 °F    
Average Humidity 76    
Maximum Humidity 97    
Minimum Humidity 38    
Precipitation  
Precipitation 0.00 in - - ()
Sea Level Pressure  
Sea Level Pressure 29.90 in    
Wind  
Wind Speed 8 mph (WSW)    
Max Wind Speed 15 mph    
Max Gust Speed -    
Visibility 10 miles    
Events      
Averages and records for this station are not official NWS values.
T = Trace of Precipitation, MM = Missing Value Source: NWS Daily Summary

Daily Weather History Graph

Daily Weather History Graph

Search for Another Location

Airport or City:

Trip Planner

Search our weather history database for the weather conditions in past years. The results will help you decide how hot, cold, wet, or windy it might be!

Date:

Astronomy

Jul. 03, 2012 Rise Set
Actual Time 5:12 AM EDT 8:16 PM EDT
Civil Twilight 4:38 AM EDT 8:50 PM EDT
Nautical Twilight 3:55 AM EDT 9:32 PM EDT
Astronomical Twilight 3:05 AM EDT 10:23 PM EDT
Moon 8:07 PM EDT (7/3) 5:02 AM EDT (7/3)
Length of Visible Light 16h 11m
Length of Day
15h 04m
Full, 100% of the Moon is Illuminated
Jul 3
Full
Jul 3
Full
Jul 10
Last Quarter
Jul 19
New
Jul 26
First Quarter

Hourly Weather History & Observations

Time (EDT) Temp. Dew Point Humidity Pressure Visibility Wind Dir Wind Speed Gust Speed Precip Events Conditions
12:53 AM 66.9 °F 64.0 °F 90% 29.87 in 10.0 mi West 8.1 mph - N/A   Clear
1:53 AM 66.9 °F 64.0 °F 90% 29.87 in 10.0 mi WNW 8.1 mph - N/A   Clear
2:53 AM 66.0 °F 63.0 °F 90% 29.86 in 10.0 mi WNW 6.9 mph - N/A   Clear
3:53 AM 64.9 °F 63.0 °F 93% 29.86 in 10.0 mi WNW 5.8 mph - N/A   Clear
4:53 AM 63.0 °F 62.1 °F 97% 29.87 in 9.0 mi NW 5.8 mph - N/A   Clear
5:53 AM 64.9 °F 63.0 °F 93% 29.88 in 10.0 mi Calm Calm - N/A   Clear
6:53 AM 69.1 °F 64.9 °F 87% 29.88 in 10.0 mi West 4.6 mph - N/A   Mostly Cloudy
7:53 AM 73.0 °F 66.0 °F 79% 29.90 in 10.0 mi NW 12.7 mph - N/A   Overcast
8:53 AM 75.0 °F 59.0 °F 57% 29.90 in 10.0 mi NNW 11.5 mph - N/A   Scattered Clouds
9:53 AM 75.9 °F 61.0 °F 60% 29.91 in 10.0 mi NNW 15.0 mph - N/A   Partly Cloudy
10:53 AM 78.1 °F 59.0 °F 52% 29.91 in 10.0 mi NNW 13.8 mph - N/A   Clear
11:53 AM 78.1 °F 59.0 °F 52% 29.91 in 10.0 mi North 10.4 mph - N/A   Clear
1:53 PM 80.1 °F 52.0 °F 38% 29.91 in 10.0 mi North 6.9 mph - N/A   Clear
2:53 PM 78.1 °F 57.9 °F 50% 29.91 in 10.0 mi SSE 10.4 mph - N/A   Clear
3:53 PM 73.9 °F 60.1 °F 62% 29.92 in 10.0 mi South 6.9 mph - N/A   Clear
4:53 PM 72.0 °F 57.9 °F 61% 29.91 in 10.0 mi South 8.1 mph - N/A   Clear
5:53 PM 70.0 °F 61.0 °F 73% 29.91 in 10.0 mi South 9.2 mph - N/A   Clear
6:53 PM 69.1 °F 60.1 °F 73% 29.91 in 10.0 mi SSE 8.1 mph - N/A   Clear
7:53 PM 66.0 °F 61.0 °F 84% 29.91 in 10.0 mi SSE 5.8 mph - N/A   Clear
8:53 PM 66.0 °F 63.0 °F 90% 29.90 in 10.0 mi South 6.9 mph - N/A   Clear
9:53 PM 66.9 °F 64.0 °F 90% 29.90 in 10.0 mi South 8.1 mph - N/A   Clear
10:53 PM 66.0 °F 64.0 °F 93% 29.90 in 10.0 mi South 6.9 mph - N/A   Clear
11:53 PM 66.9 °F 64.0 °F 90% 29.89 in 10.0 mi SSW 10.4 mph - N/A   Clear